TimeEDT,TemperatureF,Dew PointF,Humidity,Sea Level PressureIn,VisibilityMPH,Wind Direction,Wind SpeedMPH,Gust SpeedMPH,PrecipitationIn,Events,Conditions,WindDirDegrees,DateUTC
12:53 AM,48.9,46.9,93,30.13,10.0,Calm,Calm,-,N/A,,Clear,0,2012-10-10 04:53:00
1:53 AM,48.0,46.0,93,30.13,10.0,Calm,Calm,-,N/A,,Scattered Clouds,0,2012-10-10 05:53:00
2:53 AM,46.9,46.0,97,30.13,10.0,Calm,Calm,-,N/A,,Mostly Cloudy,0,2012-10-10 06:53:00
3:08 AM,48.2,46.4,93,30.12,9.0,Calm,Calm,-,N/A,,Overcast,0,2012-10-10 07:08:00
3:30 AM,50.0,48.2,94,30.12,10.0,Calm,Calm,-,N/A,,Overcast,0,2012-10-10 07:30:00
3:53 AM,50.0,48.9,96,30.11,10.0,Calm,Calm,-,N/A,,Overcast,0,2012-10-10 07:53:00
4:53 AM,48.9,48.0,97,30.10,7.0,Calm,Calm,-,N/A,,Scattered Clouds,0,2012-10-10 08:53:00
5:50 AM,48.2,46.4,93,30.11,1.8,Calm,Calm,-,N/A,,Partly Cloudy,0,2012-10-10 09:50:00
5:53 AM,48.0,46.9,96,30.11,1.5,Calm,Calm,-,N/A,,Scattered Clouds,0,2012-10-10 09:53:00
5:59 AM,48.2,46.4,93,30.11,2.0,Calm,Calm,-,N/A,,Mostly Cloudy,0,2012-10-10 09:59:00
6:02 AM,48.2,48.2,100,30.11,5.0,Calm,Calm,-,N/A,,Mostly Cloudy,0,2012-10-10 10:02:00
6:53 AM,52.0,50.0,93,30.12,10.0,Calm,Calm,-,N/A,,Overcast,0,2012-10-10 10:53:00
7:05 AM,51.8,48.2,88,30.12,10.0,Calm,Calm,-,N/A,,Overcast,0,2012-10-10 11:05:00
7:53 AM,53.1,50.0,89,30.14,10.0,Calm,Calm,-,N/A,,Overcast,0,2012-10-10 11:53:00
8:53 AM,54.0,52.0,93,30.15,5.0,South,3.5,-,N/A,,Overcast,190,2012-10-10 12:53:00
9:53 AM,55.9,54.0,93,30.15,7.0,Calm,Calm,-,N/A,,Overcast,0,2012-10-10 13:53:00
10:53 AM,60.1,55.9,86,30.14,9.0,West,5.8,-,N/A,,Overcast,270,2012-10-10 14:53:00
11:23 AM,64.4,57.2,77,30.14,10.0,WSW,6.9,-,N/A,,Mostly Cloudy,250,2012-10-10 15:23:00
11:53 AM,66.9,57.0,70,30.13,10.0,WSW,5.8,-,N/A,,Partly Cloudy,240,2012-10-10 15:53:00
12:53 PM,71.1,54.0,55,30.11,10.0,WNW,10.4,-,N/A,,Clear,290,2012-10-10 16:53:00
1:53 PM,73.0,54.0,51,30.08,10.0,WNW,6.9,18.4,N/A,,Clear,290,2012-10-10 17:53:00
2:53 PM,75.0,54.0,48,30.06,10.0,West,10.4,-,N/A,,Clear,260,2012-10-10 18:53:00
3:53 PM,77.0,53.1,43,30.04,10.0,WNW,9.2,-,N/A,,Clear,300,2012-10-10 19:53:00
4:53 PM,77.0,55.0,47,30.05,10.0,WNW,10.4,-,N/A,,Scattered Clouds,290,2012-10-10 20:53:00
5:53 PM,75.0,55.0,50,30.06,10.0,West,8.1,-,N/A,,Scattered Clouds,280,2012-10-10 21:53:00
6:53 PM,72.0,54.0,53,30.07,10.0,WNW,9.2,-,N/A,,Partly Cloudy,290,2012-10-10 22:53:00
7:53 PM,68.0,54.0,61,30.09,10.0,West,9.2,-,N/A,,Clear,280,2012-10-10 23:53:00
8:53 PM,66.9,54.0,63,30.11,10.0,West,8.1,-,N/A,,Clear,280,2012-10-11 00:53:00
9:53 PM,61.0,53.1,75,30.12,10.0,Calm,Calm,-,N/A,,Clear,0,2012-10-11 01:53:00
10:53 PM,55.9,53.1,90,30.14,10.0,Calm,Calm,-,N/A,,Clear,0,2012-10-11 02:53:00
11:53 PM,54.0,53.1,97,30.15,9.0,Calm,Calm,-,N/A,,Clear,0,2012-10-11 03:53:00